Regional Weather Roundup
Issued by NWS

Home | Current Version | Previous Version | Graphics & Text | Print | Product List | Glossary On
Versions: 1 2 3 4 5 6 7 8 9 10 11 12 13 14 15 16 17 18 19 20 21 22 23 24 25 26 27 28 29 30 31 32 33 34 35 36 37 38 39 40 41 42 43 44 45 46 47 48 49 50
000
ASUS43 KIND 271659
RWRIN

WEATHER ROUNDUP FOR INDIANA
NATIONAL WEATHER SERVICE INDIANAPOLIS IN
100 PM EDT FRI MAY 27 2016

NOTE: "FAIR" INDICATES FEW OR NO CLOUDS BELOW 12,000 FEET WITH NO
SIGNIFICANT WEATHER AND/OR OBSTRUCTIONS TO VISIBILITY.

* - STATION DOES NOT REPORT WEATHER SUCH AS PRECIPITATION OR FOG.

+ - STATION NOT QUALITY CONTROLLED BY THE NATIONAL WEATHER SERVICE.
    USE DATA WITH CAUTION...ESPECIALLY DEWPOINT AND RELATIVE
    HUMIDITY OBSERVATIONS.

INZ001>003-010>013-019-020-271800-
NORTHWEST INDIANA

CITY           SKY/WX    TMP DP  RH WIND       PRES   REMARKS
GARY /AIRPORT/ PTSUNNY   81  72  74 S9        29.92F
RENSSELAER +   CLOUDY    79  66  65 S12       29.94F

$$

LMZ046-743>745-271800-
SOUTHERN LAKE MICHIGAN

STATION/POSITION TIME  TEMP    WIND        PRES    WAVE
                       AIR SEA DIR/SP/G            HT
                 (UTC) (F)     (DEG/KT/KT) (MB)    (FT)
BURNS HARBOR     1600   74     180/ 11/ 18 1014.2R
MICHIGAN CITY    1600   72     140/ 10/ 12   N/A
5NW MICH CITY    1600   66 59  180/  8/ 10   N/A     1

$$

INZ004-005-014>016-021>024-271800-
NORTH CENTRAL INDIANA

CITY           SKY/WX    TMP DP  RH WIND       PRES   REMARKS
ELKHART        CLOUDY    77  68  73 S9        29.97S
GOSHEN         MOSUNNY   79  63  57 S13       29.98R
SOUTH BEND     CLOUDY    78  65  63 S16G22    29.97R

$$

INZ006>009-017-018-025>027-271800-
NORTHEAST INDIANA

CITY           SKY/WX    TMP DP  RH WIND       PRES   REMARKS
ANGOLA *+        N/A     75  68  78 S6        30.00S
FORT WAYNE     CLOUDY    79  64  60 S10       30.01S

$$

INZ028-029-035-036-043>045-051>053-271800-
WEST CENTRAL INDIANA

CITY           SKY/WX    TMP DP  RH WIND       PRES   REMARKS
CRAWFORDSVL +  SUNNY     80  66  61 S13G22    29.97F
GREENCASTLE +  MOSUNNY   79  70  73 S7        29.98F
LAFAYETTE      MOSUNNY   81  63  54 S8G22     29.95F
TERRE HAUTE    MOSUNNY   80  67  64 S14       29.96F

$$

INZ030>032-037>040-046>048-054>057-064-065-271800-
CENTRAL INDIANA

CITY           SKY/WX    TMP DP  RH WIND       PRES   REMARKS
ANDERSON       SUNNY     81  63  54 S6        30.02F
INDIANAPOLIS   PTSUNNY   81  66  60 S13       29.98F
-EAGLE CREEK   MOSUNNY   82  64  54 S13       29.99F
KOKOMO *+      CLOUDY    82  63  51 W13       29.97F
SHELBYVILLE    SUNNY     85  64  49 S13G20    30.00S

$$

INZ033-034-041-042-049-050-058-059-271800-
EAST CENTRAL INDIANA

CITY           SKY/WX    TMP DP  RH WIND       PRES   REMARKS
MUNCIE         SUNNY     84  60  44 S13       30.01S

$$

INZ060-061-067>069-081>083-085>088-271800-
SOUTHWEST INDIANA

CITY           SKY/WX    TMP DP  RH WIND       PRES   REMARKS
EVANSVILLE     CLOUDY    81  66  60 S12G21    29.98F
HUNTINGBURG *+ CLOUDY    82  66  57 S18G24    29.99F

$$

INZ062-063-066-070>080-084-089>092-271800-
SOUTH CENTRAL AND SOUTHEAST INDIANA

CITY           SKY/WX    TMP DP  RH WIND       PRES   REMARKS
BLOOMINGTON    PTSUNNY   81  65  58 SW12      29.99F
MADISON *+     SUNNY     82  61  47 S9G18     30.06S
SEYMOUR +      MOSUNNY   84  64  51 S13       30.01F

$$




USA.gov is the U.S. government's official web portal to all federal, state and local government web resources and services.